Regional Weather Roundup
Issued by NWS

Home | Current Version | Previous Version | Text Only | Print | Product List | Glossary Off
Versions: 1 2 3 4 5 6 7 8 9 10 11 12 13 14 15 16 17 18 19 20 21 22 23 24 25 26 27 28 29 30 31 32 33 34 35 36 37 38 39 40 41 42 43 44 45 46 47 48 49 50

000
ASUS43 KLMK 011602
RWRKY
KENTUCKY REGIONAL WEATHER ROUNDUP
NATIONAL WEATHER SERVICE LOUISVILLE KY
1200 PM EDT WED OCT 01 2014

NOTE "FAIR" INDICATES FEW OR NO CLOUDS BELOW 12,000 FEET
WITH NO SIGNIFICANT WEATHER AND/OR OBSTRUCTIONS TO VISIBILITY.

KYZ001>023-026-027-061>063-070>075-011700-
WESTERN AND SOUTH CENTRAL KENTUCKY

CITY           SKY/WX    TMP DP  RH WIND       PRES   REMARKS
PADUCAH        MOSUNNY   81  60  48 SW6       29.95S
HENDERSON      NOT AVBL
OWENSBORO      MOSUNNY   80  59  48 S9        29.98F
HOPKINSVILLE   MOSUNNY   80  58  46 VRB5      29.98S
BOWLING GREEN  SUNNY     80  57  45 VRB5      30.00F
GLASGOW        NOT AVBL
$$

KYZ024-025-028>034-038-045-046-053-011700-
NORTH CENTRAL KENTUCKY

CITY           SKY/WX    TMP DP  RH WIND       PRES   REMARKS
LOUISVILLE/SDF MOSUNNY   71  59  65 S3        30.01F
LOUISVILLE/LOU SUNNY     70  58  65 CALM      30.02S
FORT KNOX      SUNNY     71  60  68 E3        30.00S
$$

KYZ035>037-039>044-047>052-055>060-089>105-011700-
NORTHEAST KENTUCKY

CITY           SKY/WX    TMP DP  RH WIND       PRES   REMARKS
LEXINGTON      SUNNY     71  61  70 CALM      30.04S
COVINGTON      SUNNY     66  50  56 CALM      30.04S
FRANKFORT      SUNNY     65  57  75 S5        30.03S
$$

KYZ054-064>069-076>088-106>120-011700-
SOUTHEAST KENTUCKY

CITY           SKY/WX    TMP DP  RH WIND       PRES   REMARKS
JACKSON        MOSUNNY   63  58  83 CALM      30.05S
LONDON         SUNNY     74  58  57 VRB3      30.04F
SOMERSET       NOT AVBL
MIDDLESBORO    SUNNY     69  59  72 CALM      30.06F
MONTICELLO     SUNNY     79  58  48 CALM      30.04F
$$




USA.gov is the U.S. government's official web portal to all federal, state and local government web resources and services.